Location: Caltech
(34.1382°N, 118.1253°W)
Time: 03:22:54
(UTC-07:00)

Cosmos 2360 Rocket - Visible Passes

Search period start: 28 August 2016 00:00
Search period end: 07 September 2016 00:00
Orbit: 832 x 847 km, 71.0° (Epoch: 28 August)

Date Brightness Start Highest point End Pass type
(mag) Time Alt. Az. Time Alt. Az. Time Alt. Az.
28 Aug 4.9 00:09:18 13° N 00:09:18 13° N 00:10:07 10° N visible
28 Aug 4.8 23:53:36 14° N 23:53:36 14° N 23:54:33 10° N visible
29 Aug 4.8 23:37:50 15° N 23:37:50 15° N 23:38:57 10° N visible
30 Aug 4.6 23:21:58 17° N 23:21:58 17° N 23:23:21 10° N visible
31 Aug 4.5 23:05:59 19° N 23:05:59 19° N 23:07:45 10° N visible
01 Sep 4.2 22:49:50 23° N 22:49:50 23° N 22:52:09 10° N visible
02 Sep 4.3 20:51:43 10° NE 20:51:43 10° NE 20:51:48 10° NE visible
02 Sep 3.8 22:33:23 29° NNW 22:33:23 29° NNW 22:36:33 10° N visible
03 Sep 3.9 20:34:45 14° ENE 20:34:45 14° ENE 20:35:59 10° NE visible
03 Sep 3.3 22:16:21 41° NW 22:16:21 41° NW 22:20:56 10° N visible
04 Sep 3.4 20:15:47 19° ESE 20:16:18 19° E 20:20:10 10° ENE visible
04 Sep 3.0 21:56:48 25° SW 21:59:50 48° WNW 22:05:19 10° N visible
05 Sep 3.5 19:57:04 10° SE 20:00:41 18° E 20:04:19 10° ENE visible
05 Sep 2.9 21:38:42 10° SW 21:44:10 51° WNW 21:49:42 10° N visible
06 Sep 3.6 19:41:41 10° SE 19:45:04 16° E 19:48:27 10° ENE visible
06 Sep 2.8 21:22:58 10° SW 21:28:30 55° WNW 21:34:04 10° NNE visible
